Year,Month,Day,Hour,Minute,Value (Times are PST for temperature in C)
2009,07,16,00,00,14.40
2009,07,16,00,01,14.40
2009,07,16,00,02,14.30
2009,07,16,00,03,14.30
2009,07,16,00,04,14.20
2009,07,16,00,05,14.20
2009,07,16,00,06,14.20
2009,07,16,00,07,14.20
2009,07,16,00,08,14.20
2009,07,16,00,09,14.20
2009,07,16,00,10,14.10
2009,07,16,00,11,14.10
2009,07,16,00,12,14.10
2009,07,16,00,13,14.00
2009,07,16,00,14,14.00
2009,07,16,00,15,14.00
2009,07,16,00,16,14.00
2009,07,16,00,17,13.90
2009,07,16,00,18,13.90
2009,07,16,00,19,13.90
2009,07,16,00,20,13.80
2009,07,16,00,21,13.80
2009,07,16,00,22,13.70
2009,07,16,00,23,13.70
2009,07,16,00,24,13.60
2009,07,16,00,25,13.50
2009,07,16,00,26,13.40
2009,07,16,00,27,13.30
2009,07,16,00,28,13.30
2009,07,16,00,29,13.30
2009,07,16,00,30,13.30
2009,07,16,00,31,13.20
2009,07,16,00,32,13.20
2009,07,16,00,33,13.20
2009,07,16,00,34,13.20
2009,07,16,00,35,13.20
2009,07,16,00,36,13.20
2009,07,16,00,37,13.20
2009,07,16,00,38,13.20
2009,07,16,00,39,13.20
2009,07,16,00,40,13.20
2009,07,16,00,41,13.20
2009,07,16,00,42,13.20
2009,07,16,00,43,13.20
2009,07,16,00,44,13.20
2009,07,16,00,45,13.20
2009,07,16,00,46,13.20
2009,07,16,00,47,13.20
2009,07,16,00,48,13.20
2009,07,16,00,49,13.20
2009,07,16,00,50,13.20
2009,07,16,00,51,13.10
2009,07,16,00,52,13.10
2009,07,16,00,53,13.10
2009,07,16,00,54,13.20
2009,07,16,00,55,13.20
2009,07,16,00,56,13.20
2009,07,16,00,57,13.20
2009,07,16,00,58,13.20
2009,07,16,00,59,13.20
2009,07,16,01,00,13.20
2009,07,16,01,01,13.20
2009,07,16,01,02,13.30
2009,07,16,01,03,13.30
2009,07,16,01,04,13.30
2009,07,16,01,05,13.30
2009,07,16,01,06,13.30
2009,07,16,01,07,13.30
2009,07,16,01,08,13.30
2009,07,16,01,09,13.30
2009,07,16,01,10,13.30
2009,07,16,01,11,13.30
2009,07,16,01,12,13.30
2009,07,16,01,13,13.30
2009,07,16,01,14,13.30
2009,07,16,01,15,13.30
2009,07,16,01,16,13.30
2009,07,16,01,17,13.30
2009,07,16,01,18,13.40
2009,07,16,01,19,13.40
2009,07,16,01,20,13.40
2009,07,16,01,21,13.40
2009,07,16,01,22,13.40
2009,07,16,01,23,13.40
2009,07,16,01,24,13.40
2009,07,16,01,25,13.40
2009,07,16,01,26,13.40
2009,07,16,01,27,13.40
2009,07,16,01,28,13.40
2009,07,16,01,29,13.40
2009,07,16,01,30,13.40
2009,07,16,01,31,13.40
2009,07,16,01,32,13.40
2009,07,16,01,33,13.40
2009,07,16,01,34,13.30
2009,07,16,01,35,13.30
2009,07,16,01,36,13.30
2009,07,16,01,37,13.30
2009,07,16,01,38,13.30
2009,07,16,01,39,13.30
2009,07,16,01,40,13.30
2009,07,16,01,41,13.30
2009,07,16,01,42,13.20
2009,07,16,01,43,13.20
2009,07,16,01,44,13.10
2009,07,16,01,45,13.10
2009,07,16,01,46,13.00
2009,07,16,01,47,13.00
2009,07,16,01,48,12.90
2009,07,16,01,49,12.90
2009,07,16,01,50,12.80
2009,07,16,01,51,12.80
2009,07,16,01,52,12.80
2009,07,16,01,53,12.80
2009,07,16,01,54,12.80
2009,07,16,01,55,12.70
2009,07,16,01,56,12.70
2009,07,16,01,57,12.60
2009,07,16,01,58,12.60
2009,07,16,01,59,12.60
2009,07,16,02,00,12.60
2009,07,16,02,01,12.50
2009,07,16,02,02,12.50
2009,07,16,02,03,12.50
2009,07,16,02,04,12.50
2009,07,16,02,05,12.50
2009,07,16,02,06,12.50
2009,07,16,02,07,12.50
2009,07,16,02,08,12.50
2009,07,16,02,09,12.50
2009,07,16,02,10,12.50
2009,07,16,02,11,12.50
2009,07,16,02,12,12.60
2009,07,16,02,13,12.60
2009,07,16,02,14,12.60
2009,07,16,02,15,12.50
2009,07,16,02,16,12.60
2009,07,16,02,17,12.60
2009,07,16,02,18,12.60
2009,07,16,02,19,12.60
2009,07,16,02,20,12.60
2009,07,16,02,21,12.60
2009,07,16,02,22,12.60
2009,07,16,02,23,12.60
2009,07,16,02,24,12.60
2009,07,16,02,25,12.60
2009,07,16,02,26,12.50
2009,07,16,02,27,12.50
2009,07,16,02,28,12.50
2009,07,16,02,29,12.50
2009,07,16,02,30,12.50
2009,07,16,02,31,12.50
2009,07,16,02,32,12.50
2009,07,16,02,33,12.50
2009,07,16,02,34,12.50
2009,07,16,02,35,12.40
2009,07,16,02,36,12.40
2009,07,16,02,37,12.40
2009,07,16,02,38,12.40
2009,07,16,02,39,12.40
2009,07,16,02,40,12.40
2009,07,16,02,41,12.30
2009,07,16,02,42,12.30
2009,07,16,02,43,12.30
2009,07,16,02,44,12.30
2009,07,16,02,45,12.30
2009,07,16,02,46,12.30
2009,07,16,02,47,12.30
2009,07,16,02,48,12.30
2009,07,16,02,49,12.20
2009,07,16,02,50,12.20
2009,07,16,02,51,12.20
2009,07,16,02,52,12.10
2009,07,16,02,53,12.10
2009,07,16,02,54,12.00
2009,07,16,02,55,12.00
2009,07,16,02,56,11.90
2009,07,16,02,57,11.90
2009,07,16,02,58,11.90
2009,07,16,02,59,11.80
2009,07,16,03,00,11.80
2009,07,16,03,01,11.80
2009,07,16,03,02,11.80
2009,07,16,03,03,11.80
2009,07,16,03,04,11.80
2009,07,16,03,05,11.80
2009,07,16,03,06,11.80
2009,07,16,03,07,11.70
2009,07,16,03,08,11.70
2009,07,16,03,09,11.70
2009,07,16,03,10,11.70
2009,07,16,03,11,11.70
2009,07,16,03,12,11.70
2009,07,16,03,13,11.70
2009,07,16,03,14,11.70
2009,07,16,03,15,11.70
2009,07,16,03,16,11.70
2009,07,16,03,17,11.70
2009,07,16,03,18,11.70
2009,07,16,03,19,11.70
2009,07,16,03,20,11.70
2009,07,16,03,21,11.70
2009,07,16,03,22,11.70
2009,07,16,03,23,11.70
2009,07,16,03,24,11.70
2009,07,16,03,25,11.70
2009,07,16,03,26,11.80
2009,07,16,03,27,11.80
2009,07,16,03,28,11.80
2009,07,16,03,29,11.80
2009,07,16,03,30,11.80
2009,07,16,03,31,11.80
2009,07,16,03,32,11.80
2009,07,16,03,33,11.80
2009,07,16,03,34,11.80
2009,07,16,03,35,11.80
2009,07,16,03,36,11.80
2009,07,16,03,37,11.80
2009,07,16,03,38,11.80
2009,07,16,03,39,11.80
2009,07,16,03,40,11.80
2009,07,16,03,41,11.80
2009,07,16,03,42,11.80
2009,07,16,03,43,11.80
2009,07,16,03,44,11.80
2009,07,16,03,45,11.70
2009,07,16,03,46,11.70
2009,07,16,03,47,11.70
2009,07,16,03,48,11.70
2009,07,16,03,49,11.70
2009,07,16,03,50,11.70
2009,07,16,03,51,11.70
2009,07,16,03,52,11.70
2009,07,16,03,53,11.70
2009,07,16,03,54,11.70
2009,07,16,03,55,11.70
2009,07,16,03,56,11.70
2009,07,16,03,57,11.70
2009,07,16,03,58,11.70
2009,07,16,03,59,11.70
2009,07,16,04,00,11.70
2009,07,16,04,01,11.70
2009,07,16,04,02,11.70
2009,07,16,04,03,11.70
2009,07,16,04,04,11.70
2009,07,16,04,05,11.70
2009,07,16,04,06,11.70
2009,07,16,04,07,11.70
2009,07,16,04,08,11.70
2009,07,16,04,09,11.70
2009,07,16,04,10,11.70
2009,07,16,04,11,11.70
2009,07,16,04,12,11.70
2009,07,16,04,13,11.70
2009,07,16,04,14,11.70
2009,07,16,04,15,11.70
2009,07,16,04,16,11.70
2009,07,16,04,17,11.70
2009,07,16,04,18,11.70
2009,07,16,04,19,11.70
2009,07,16,04,20,11.70
2009,07,16,04,21,11.70
2009,07,16,04,22,11.70
2009,07,16,04,23,11.70
2009,07,16,04,24,11.70
2009,07,16,04,25,11.70
2009,07,16,04,26,11.70
2009,07,16,04,27,11.70
2009,07,16,04,28,11.70
2009,07,16,04,29,11.70
2009,07,16,04,30,11.70
2009,07,16,04,31,11.70
2009,07,16,04,32,11.70
2009,07,16,04,33,11.60
2009,07,16,04,34,11.60
2009,07,16,04,35,11.60
2009,07,16,04,36,11.60
2009,07,16,04,37,11.60
2009,07,16,04,38,11.60
2009,07,16,04,39,11.60
2009,07,16,04,40,11.60
2009,07,16,04,41,11.60
2009,07,16,04,42,11.60
2009,07,16,04,43,11.60
2009,07,16,04,44,11.60
2009,07,16,04,45,11.60
2009,07,16,04,46,11.60
2009,07,16,04,47,11.60
2009,07,16,04,48,11.60
2009,07,16,04,49,11.60
2009,07,16,04,50,11.60
2009,07,16,04,51,11.60
2009,07,16,04,52,11.70
2009,07,16,04,53,11.70
2009,07,16,04,54,11.70
2009,07,16,04,55,11.70
2009,07,16,04,56,11.70
2009,07,16,04,57,11.70
2009,07,16,04,58,11.70
2009,07,16,04,59,11.70
2009,07,16,05,00,11.70
2009,07,16,05,01,11.70
2009,07,16,05,02,11.70
2009,07,16,05,03,11.70
2009,07,16,05,04,11.70
2009,07,16,05,05,11.60
2009,07,16,05,06,11.60
2009,07,16,05,07,11.60
2009,07,16,05,08,11.60
2009,07,16,05,09,11.60
2009,07,16,05,10,11.60
2009,07,16,05,11,11.60
2009,07,16,05,12,11.60
2009,07,16,05,13,11.60
2009,07,16,05,14,11.60
2009,07,16,05,15,11.60
2009,07,16,05,16,11.60
2009,07,16,05,17,11.60
2009,07,16,05,18,11.60
2009,07,16,05,19,11.60
2009,07,16,05,20,11.60
2009,07,16,05,21,11.60
2009,07,16,05,22,11.60
2009,07,16,05,23,11.60
2009,07,16,05,24,11.60
2009,07,16,05,25,11.60
2009,07,16,05,26,11.60
2009,07,16,05,27,11.60
2009,07,16,05,28,11.60
2009,07,16,05,29,11.60
2009,07,16,05,30,11.60
2009,07,16,05,31,11.60
2009,07,16,05,32,11.60
2009,07,16,05,33,11.60
2009,07,16,05,34,11.60
2009,07,16,05,35,11.60
2009,07,16,05,36,11.60
2009,07,16,05,37,11.60
2009,07,16,05,38,11.60
2009,07,16,05,39,11.60
2009,07,16,05,40,11.60
2009,07,16,05,41,11.60
2009,07,16,05,42,11.60
2009,07,16,05,43,11.60
2009,07,16,05,44,11.60
2009,07,16,05,45,11.70
2009,07,16,05,46,11.70
2009,07,16,05,47,11.70
2009,07,16,05,48,11.70
2009,07,16,05,49,11.70
2009,07,16,05,50,11.70
2009,07,16,05,51,11.70
2009,07,16,05,52,11.70
2009,07,16,05,53,11.70
2009,07,16,05,54,11.70
2009,07,16,05,55,11.70
2009,07,16,05,56,11.70
2009,07,16,05,57,11.70
2009,07,16,05,58,11.70
2009,07,16,05,59,11.70
2009,07,16,06,00,11.70
2009,07,16,06,01,11.70
2009,07,16,06,02,11.70
2009,07,16,06,03,11.70
2009,07,16,06,04,11.70
2009,07,16,06,05,11.70
2009,07,16,06,06,11.70
2009,07,16,06,07,11.70
2009,07,16,06,08,11.70
2009,07,16,06,09,11.70
2009,07,16,06,10,11.70
2009,07,16,06,11,11.70
2009,07,16,06,12,11.60
2009,07,16,06,13,11.60
2009,07,16,06,14,11.60
2009,07,16,06,15,11.70
2009,07,16,06,16,11.70
2009,07,16,06,17,11.70
2009,07,16,06,18,11.70
2009,07,16,06,19,11.70
2009,07,16,06,20,11.80
2009,07,16,06,21,11.80
2009,07,16,06,22,11.80
2009,07,16,06,23,11.80
2009,07,16,06,24,11.80
2009,07,16,06,25,11.80
2009,07,16,06,26,11.80
2009,07,16,06,27,11.80
2009,07,16,06,28,11.80
2009,07,16,06,29,11.90
2009,07,16,06,30,11.90
2009,07,16,06,31,11.90
2009,07,16,06,32,12.00
2009,07,16,06,33,12.00
2009,07,16,06,34,12.00
2009,07,16,06,35,12.10
2009,07,16,06,36,12.10
2009,07,16,06,37,12.20
2009,07,16,06,38,12.20
2009,07,16,06,39,12.30
2009,07,16,06,40,12.30
2009,07,16,06,41,12.30
2009,07,16,06,42,12.40
2009,07,16,06,43,12.40
2009,07,16,06,44,12.50
2009,07,16,06,45,12.60
2009,07,16,06,46,12.70
2009,07,16,06,47,12.80
2009,07,16,06,48,12.80
2009,07,16,06,49,12.80
2009,07,16,06,50,12.90
2009,07,16,06,51,13.10
2009,07,16,06,52,13.10
2009,07,16,06,53,13.30
2009,07,16,06,54,13.30
2009,07,16,06,55,13.50
2009,07,16,06,56,13.60
2009,07,16,06,57,13.70
2009,07,16,06,58,13.70
2009,07,16,06,59,13.80
2009,07,16,07,00,13.90
2009,07,16,07,01,14.00
2009,07,16,07,02,14.00
2009,07,16,07,03,14.10
2009,07,16,07,04,14.20
2009,07,16,07,05,14.20
2009,07,16,07,06,14.30
2009,07,16,07,07,14.40
2009,07,16,07,08,14.50
2009,07,16,07,09,14.50
2009,07,16,07,10,14.50
2009,07,16,07,11,14.50
2009,07,16,07,12,14.50
2009,07,16,07,13,14.50
2009,07,16,07,14,14.50
2009,07,16,07,15,14.50
2009,07,16,07,16,14.50
2009,07,16,07,17,14.40
2009,07,16,07,18,14.40
2009,07,16,07,19,14.40
2009,07,16,07,20,14.40
2009,07,16,07,21,14.40
2009,07,16,07,22,14.50
2009,07,16,07,23,14.60
2009,07,16,07,24,14.60
2009,07,16,07,25,14.60
2009,07,16,07,26,14.60
2009,07,16,07,27,14.70
2009,07,16,07,28,14.70
2009,07,16,07,29,14.80
2009,07,16,07,30,14.80
2009,07,16,07,31,14.80
2009,07,16,07,32,14.80
2009,07,16,07,33,14.80
2009,07,16,07,34,14.80
2009,07,16,07,35,14.80
2009,07,16,07,36,14.90
2009,07,16,07,37,14.90
2009,07,16,07,38,14.90
2009,07,16,07,39,15.00
2009,07,16,07,40,15.10
2009,07,16,07,41,15.10
2009,07,16,07,42,15.20
2009,07,16,07,43,15.20
2009,07,16,07,44,15.30
2009,07,16,07,45,15.40
2009,07,16,07,46,15.50
2009,07,16,07,47,15.60
2009,07,16,07,48,15.70
2009,07,16,07,49,15.80
2009,07,16,07,50,15.80
2009,07,16,07,51,15.90
2009,07,16,07,52,16.00
2009,07,16,07,53,16.10
2009,07,16,07,54,16.10
2009,07,16,07,55,16.20
2009,07,16,07,56,16.20
2009,07,16,07,57,16.30
2009,07,16,07,58,16.30
2009,07,16,07,59,16.40
2009,07,16,08,00,16.40
2009,07,16,08,01,16.50
2009,07,16,08,02,16.60
2009,07,16,08,03,16.70
2009,07,16,08,04,16.80
2009,07,16,08,05,16.80
2009,07,16,08,06,16.90
2009,07,16,08,07,17.00
2009,07,16,08,08,17.00
2009,07,16,08,09,17.00
2009,07,16,08,10,17.00
2009,07,16,08,11,17.00
2009,07,16,08,12,16.90
2009,07,16,08,13,16.90
2009,07,16,08,14,16.80
2009,07,16,08,15,16.80
2009,07,16,08,16,16.80
2009,07,16,08,17,16.70
2009,07,16,08,18,16.70
2009,07,16,08,19,16.70
2009,07,16,08,20,16.70
2009,07,16,08,21,16.70
2009,07,16,08,22,16.70
2009,07,16,08,23,16.70
2009,07,16,08,24,16.70
2009,07,16,08,25,16.80
2009,07,16,08,26,16.80
2009,07,16,08,27,16.80
2009,07,16,08,28,16.70
2009,07,16,08,29,16.70
2009,07,16,08,30,16.70
2009,07,16,08,31,16.70
2009,07,16,08,32,16.70
2009,07,16,08,33,16.70
2009,07,16,08,34,16.60
2009,07,16,08,35,16.50
2009,07,16,08,36,16.40
2009,07,16,08,37,16.40
2009,07,16,08,38,16.40
2009,07,16,08,39,16.40
2009,07,16,08,40,16.40
2009,07,16,08,41,16.50
2009,07,16,08,42,16.60
2009,07,16,08,43,16.60
2009,07,16,08,44,16.70
2009,07,16,08,45,16.70
2009,07,16,08,46,16.70
2009,07,16,08,47,16.80
2009,07,16,08,48,16.70
2009,07,16,08,49,16.70
2009,07,16,08,50,16.70
2009,07,16,08,51,16.80
2009,07,16,08,52,16.80
2009,07,16,08,53,16.70
2009,07,16,08,54,16.70
2009,07,16,08,55,16.70
2009,07,16,08,56,16.80
2009,07,16,08,57,16.80
2009,07,16,08,58,16.90
2009,07,16,08,59,16.90
2009,07,16,09,00,16.90
2009,07,16,09,01,17.00
2009,07,16,09,02,17.10
2009,07,16,09,03,17.20
2009,07,16,09,04,17.20
2009,07,16,09,05,17.30
2009,07,16,09,06,17.30
2009,07,16,09,07,17.30
2009,07,16,09,08,17.40
2009,07,16,09,09,17.50
2009,07,16,09,10,17.50
2009,07,16,09,11,17.50
2009,07,16,09,12,17.50
2009,07,16,09,13,17.50
2009,07,16,09,14,17.40
2009,07,16,09,15,17.30
2009,07,16,09,16,17.30
2009,07,16,09,17,17.30
2009,07,16,09,18,17.30
2009,07,16,09,19,17.20
2009,07,16,09,20,17.20
2009,07,16,09,21,17.10
2009,07,16,09,22,17.10
2009,07,16,09,23,17.10
2009,07,16,09,24,17.20
2009,07,16,09,25,17.10
2009,07,16,09,26,17.10
2009,07,16,09,27,17.10
2009,07,16,09,28,17.10
2009,07,16,09,29,17.10
2009,07,16,09,30,17.10
2009,07,16,09,31,17.10
2009,07,16,09,32,17.20
2009,07,16,09,33,17.20
2009,07,16,09,34,17.30
2009,07,16,09,35,17.20
2009,07,16,09,36,17.30
2009,07,16,09,37,17.30
2009,07,16,09,38,17.30
2009,07,16,09,39,17.30
2009,07,16,09,40,17.40
2009,07,16,09,41,17.40
2009,07,16,09,42,17.40
2009,07,16,09,43,17.40
2009,07,16,09,44,17.30
2009,07,16,09,45,17.30
2009,07,16,09,46,17.20
2009,07,16,09,47,17.20
2009,07,16,09,48,17.10
2009,07,16,09,49,17.00
2009,07,16,09,50,16.90
2009,07,16,09,51,16.70
2009,07,16,09,52,16.60
2009,07,16,09,53,16.40
2009,07,16,09,54,16.40
2009,07,16,09,55,16.40
2009,07,16,09,56,16.40
2009,07,16,09,57,16.40
2009,07,16,09,58,16.40
2009,07,16,09,59,16.40
2009,07,16,10,00,16.40
2009,07,16,10,01,16.40
2009,07,16,10,02,16.30
2009,07,16,10,03,16.20
2009,07,16,10,04,16.20
2009,07,16,10,05,16.20
2009,07,16,10,06,16.30
2009,07,16,10,07,16.30
2009,07,16,10,08,16.40
2009,07,16,10,09,16.40
2009,07,16,10,10,16.60
2009,07,16,10,11,16.70
2009,07,16,10,12,16.70
2009,07,16,10,13,16.70
2009,07,16,10,14,16.80
2009,07,16,10,15,16.80
2009,07,16,10,16,16.90
2009,07,16,10,17,16.80
2009,07,16,10,18,16.80
2009,07,16,10,19,16.80
2009,07,16,10,20,16.80
2009,07,16,10,21,16.90
2009,07,16,10,22,17.00
2009,07,16,10,23,17.00
2009,07,16,10,24,17.00
2009,07,16,10,25,17.00
2009,07,16,10,26,17.00
2009,07,16,10,27,17.10
2009,07,16,10,28,17.20
2009,07,16,10,29,17.20
2009,07,16,10,30,17.20
2009,07,16,10,31,17.30
2009,07,16,10,32,17.30
2009,07,16,10,33,17.40
2009,07,16,10,34,17.50
2009,07,16,10,35,17.70
2009,07,16,10,36,17.80
2009,07,16,10,37,17.90
2009,07,16,10,38,18.10
2009,07,16,10,39,18.10
2009,07,16,10,40,18.20
2009,07,16,10,41,18.30
2009,07,16,10,42,18.40
2009,07,16,10,43,18.40
2009,07,16,10,44,18.40
2009,07,16,10,45,18.40
2009,07,16,10,46,18.20
2009,07,16,10,47,18.20
2009,07,16,10,48,18.30
2009,07,16,10,49,18.40
2009,07,16,10,50,18.50
2009,07,16,10,51,18.60
2009,07,16,10,52,18.70
2009,07,16,10,53,18.80
2009,07,16,10,54,18.90
2009,07,16,10,55,18.90
2009,07,16,10,56,18.90
2009,07,16,10,57,18.90
2009,07,16,10,58,18.90
2009,07,16,10,59,19.10
2009,07,16,11,00,19.20
2009,07,16,11,01,19.30
2009,07,16,11,02,19.40
2009,07,16,11,03,19.50
2009,07,16,11,04,19.60
2009,07,16,11,05,19.70
2009,07,16,11,06,19.70
2009,07,16,11,07,19.80
2009,07,16,11,08,19.80
2009,07,16,11,09,19.90
2009,07,16,11,10,19.90
2009,07,16,11,11,20.00
2009,07,16,11,12,20.20
2009,07,16,11,13,20.20
2009,07,16,11,14,20.30
2009,07,16,11,15,20.40
2009,07,16,11,16,20.50
2009,07,16,11,17,20.60
2009,07,16,11,18,20.60
2009,07,16,11,19,20.70
2009,07,16,11,20,20.70
2009,07,16,11,21,20.70
2009,07,16,11,22,20.70
2009,07,16,11,23,20.80
2009,07,16,11,24,20.80
2009,07,16,11,25,20.90
2009,07,16,11,26,21.00
2009,07,16,11,27,20.90
2009,07,16,11,28,20.80
2009,07,16,11,29,20.70
2009,07,16,11,30,20.50
2009,07,16,11,31,20.40
2009,07,16,11,32,20.40
2009,07,16,11,33,20.40
2009,07,16,11,34,20.40
2009,07,16,11,35,20.40
2009,07,16,11,36,20.50
2009,07,16,11,37,20.50
2009,07,16,11,38,20.40
2009,07,16,11,39,20.50
2009,07,16,11,40,20.50
2009,07,16,11,41,20.70
2009,07,16,11,42,20.70
2009,07,16,11,43,20.70
2009,07,16,11,44,20.70
2009,07,16,11,45,20.60
2009,07,16,11,46,20.60
2009,07,16,11,47,20.50
2009,07,16,11,48,20.50
2009,07,16,11,49,20.50
2009,07,16,11,50,20.60
2009,07,16,11,51,20.70
2009,07,16,11,52,20.60
2009,07,16,11,53,20.60
2009,07,16,11,54,20.60
2009,07,16,11,55,20.70
2009,07,16,11,56,20.80
2009,07,16,11,57,20.80
2009,07,16,11,58,20.90
2009,07,16,11,59,20.90
2009,07,16,12,00,20.80
2009,07,16,12,01,20.80
2009,07,16,12,02,20.70
2009,07,16,12,03,20.80
2009,07,16,12,04,20.80
2009,07,16,12,05,20.90
2009,07,16,12,06,20.90
2009,07,16,12,07,20.80
2009,07,16,12,08,20.70
2009,07,16,12,09,20.60
2009,07,16,12,10,20.50
2009,07,16,12,11,20.60
2009,07,16,12,12,20.60
2009,07,16,12,13,20.70
2009,07,16,12,14,20.90
2009,07,16,12,15,21.00
2009,07,16,12,16,21.00
2009,07,16,12,17,21.20
2009,07,16,12,18,21.30
2009,07,16,12,19,21.40
2009,07,16,12,20,21.30
2009,07,16,12,21,21.20
2009,07,16,12,22,21.10
2009,07,16,12,23,21.00
2009,07,16,12,24,21.00
2009,07,16,12,25,20.90
2009,07,16,12,26,20.80
2009,07,16,12,27,20.80
2009,07,16,12,28,20.90
2009,07,16,12,29,20.80
2009,07,16,12,30,20.80
2009,07,16,12,31,20.80
2009,07,16,12,32,20.70
2009,07,16,12,33,20.60
2009,07,16,12,34,20.60
2009,07,16,12,35,20.60
2009,07,16,12,36,20.60
2009,07,16,12,37,20.50
2009,07,16,12,38,20.40
2009,07,16,12,39,20.30
2009,07,16,12,40,20.30
2009,07,16,12,41,20.50
2009,07,16,12,42,20.60
2009,07,16,12,43,20.70
2009,07,16,12,44,20.80
2009,07,16,12,45,20.90
2009,07,16,12,46,20.90
2009,07,16,12,47,20.90
2009,07,16,12,48,20.90
2009,07,16,12,49,21.00
2009,07,16,12,50,21.00
2009,07,16,12,51,21.00
2009,07,16,12,52,21.00
2009,07,16,12,53,21.20
2009,07,16,12,54,21.30
2009,07,16,12,55,21.30
2009,07,16,12,56,21.30
2009,07,16,12,57,21.30
2009,07,16,12,58,21.20
2009,07,16,12,59,21.20
2009,07,16,13,00,21.20
2009,07,16,13,01,21.30
2009,07,16,13,02,21.30
2009,07,16,13,03,21.30
2009,07,16,13,04,21.40
2009,07,16,13,05,21.40
2009,07,16,13,06,21.40
2009,07,16,13,07,21.40
2009,07,16,13,08,21.30
2009,07,16,13,09,21.30
2009,07,16,13,10,21.30
2009,07,16,13,11,21.30
2009,07,16,13,12,21.40
2009,07,16,13,13,21.50
2009,07,16,13,14,21.60
2009,07,16,13,15,21.60
2009,07,16,13,16,21.60
2009,07,16,13,17,21.80
2009,07,16,13,18,21.80
2009,07,16,13,19,21.90
2009,07,16,13,20,22.00
2009,07,16,13,21,22.00
2009,07,16,13,22,22.00
2009,07,16,13,23,22.00
2009,07,16,13,24,22.10
2009,07,16,13,25,22.30
2009,07,16,13,26,22.40
2009,07,16,13,27,22.40
2009,07,16,13,28,22.60
2009,07,16,13,29,22.60
2009,07,16,13,30,22.70
2009,07,16,13,31,22.60
2009,07,16,13,32,22.60
2009,07,16,13,33,22.60
2009,07,16,13,34,22.50
2009,07,16,13,35,22.50
2009,07,16,13,36,22.50
2009,07,16,13,37,22.50
2009,07,16,13,38,22.60
2009,07,16,13,39,22.60
2009,07,16,13,40,22.60
2009,07,16,13,41,22.60
2009,07,16,13,42,22.70
2009,07,16,13,43,22.70
2009,07,16,13,44,22.70
2009,07,16,13,45,22.70
2009,07,16,13,46,22.70
2009,07,16,13,47,22.70
2009,07,16,13,48,22.80
2009,07,16,13,49,22.90
2009,07,16,13,50,22.80
2009,07,16,13,51,22.90
2009,07,16,13,52,22.90
2009,07,16,13,53,22.90
2009,07,16,13,54,22.90
2009,07,16,13,55,22.90
2009,07,16,13,56,22.90
2009,07,16,13,57,23.00
2009,07,16,13,58,23.10
2009,07,16,13,59,23.30
2009,07,16,14,00,23.40
2009,07,16,14,01,23.50
2009,07,16,14,02,23.60
2009,07,16,14,03,23.60
2009,07,16,14,04,23.60
2009,07,16,14,05,23.70
2009,07,16,14,06,23.70
2009,07,16,14,07,23.70
2009,07,16,14,08,23.70
2009,07,16,14,09,23.80
2009,07,16,14,10,23.80
2009,07,16,14,11,23.80
2009,07,16,14,12,23.70
2009,07,16,14,13,23.70
2009,07,16,14,14,23.80
2009,07,16,14,15,23.90
2009,07,16,14,16,23.90
2009,07,16,14,17,24.00
2009,07,16,14,18,24.10
2009,07,16,14,19,24.30
2009,07,16,14,20,24.40
2009,07,16,14,21,24.50
2009,07,16,14,22,24.60
2009,07,16,14,23,24.60
2009,07,16,14,24,24.60
2009,07,16,14,25,24.60
2009,07,16,14,26,24.60
2009,07,16,14,27,24.60
2009,07,16,14,28,24.70
2009,07,16,14,29,24.70
2009,07,16,14,30,24.80
2009,07,16,14,31,24.80
2009,07,16,14,32,24.90
2009,07,16,14,33,24.90
2009,07,16,14,34,25.00
2009,07,16,14,35,25.00
2009,07,16,14,36,25.00
2009,07,16,14,37,24.90
2009,07,16,14,38,24.90
2009,07,16,14,39,24.90
2009,07,16,14,40,24.90
2009,07,16,14,41,25.00
2009,07,16,14,42,25.10
2009,07,16,14,43,25.30
2009,07,16,14,44,25.40
2009,07,16,14,45,25.40
2009,07,16,14,46,25.50
2009,07,16,14,47,25.50
2009,07,16,14,48,25.60
2009,07,16,14,49,25.70
2009,07,16,14,50,25.70
2009,07,16,14,51,25.60
2009,07,16,14,52,25.50
2009,07,16,14,53,25.40
2009,07,16,14,54,25.40
2009,07,16,14,55,25.30
2009,07,16,14,56,25.40
2009,07,16,14,57,25.40
2009,07,16,14,58,25.40
2009,07,16,14,59,25.40
2009,07,16,15,00,25.50
2009,07,16,15,01,25.40
2009,07,16,15,02,25.40
2009,07,16,15,03,25.40
2009,07,16,15,04,25.40
2009,07,16,15,05,25.40
2009,07,16,15,06,25.50
2009,07,16,15,07,25.60
2009,07,16,15,08,25.80
2009,07,16,15,09,25.90
2009,07,16,15,10,25.90
2009,07,16,15,11,26.00
2009,07,16,15,12,26.10
2009,07,16,15,13,26.10
2009,07,16,15,14,26.10
2009,07,16,15,15,26.20
2009,07,16,15,16,26.20
2009,07,16,15,17,26.20
2009,07,16,15,18,26.30
2009,07,16,15,19,26.40
2009,07,16,15,20,26.40
2009,07,16,15,21,26.40
2009,07,16,15,22,26.40
2009,07,16,15,23,26.40
2009,07,16,15,24,26.30
2009,07,16,15,25,26.30
2009,07,16,15,26,26.40
2009,07,16,15,27,26.50
2009,07,16,15,28,26.60
2009,07,16,15,29,26.60
2009,07,16,15,30,26.60
2009,07,16,15,31,26.60
2009,07,16,15,32,26.60
2009,07,16,15,33,26.60
2009,07,16,15,34,26.60
2009,07,16,15,35,26.50
2009,07,16,15,36,26.40
2009,07,16,15,37,26.30
2009,07,16,15,38,26.40
2009,07,16,15,39,26.40
2009,07,16,15,40,26.50
2009,07,16,15,41,26.60
2009,07,16,15,42,26.60
2009,07,16,15,43,26.50
2009,07,16,15,44,26.40
2009,07,16,15,45,26.30
2009,07,16,15,46,26.20
2009,07,16,15,47,26.10
2009,07,16,15,48,26.10
2009,07,16,15,49,26.20
2009,07,16,15,50,26.30
2009,07,16,15,51,26.60
2009,07,16,15,52,26.60
2009,07,16,15,53,26.70
2009,07,16,15,54,26.70
2009,07,16,15,55,26.70
2009,07,16,15,56,26.70
2009,07,16,15,57,26.70
2009,07,16,15,58,26.60
2009,07,16,15,59,26.60
2009,07,16,16,00,26.60
2009,07,16,16,01,26.60
2009,07,16,16,02,26.60
2009,07,16,16,03,26.60
2009,07,16,16,04,26.60
2009,07,16,16,05,26.60
2009,07,16,16,06,26.60
2009,07,16,16,07,26.70
2009,07,16,16,08,26.80
2009,07,16,16,09,26.80
2009,07,16,16,10,26.90
2009,07,16,16,11,27.00
2009,07,16,16,12,27.00
2009,07,16,16,13,26.80
2009,07,16,16,14,26.80
2009,07,16,16,15,26.70
2009,07,16,16,16,26.70
2009,07,16,16,17,26.70
2009,07,16,16,18,26.80
2009,07,16,16,19,26.90
2009,07,16,16,20,27.00
2009,07,16,16,21,27.10
2009,07,16,16,22,27.10
2009,07,16,16,23,27.10
2009,07,16,16,24,27.00
2009,07,16,16,25,26.90
2009,07,16,16,26,26.90
2009,07,16,16,27,26.80
2009,07,16,16,28,26.80
2009,07,16,16,29,26.80
2009,07,16,16,30,27.00
2009,07,16,16,31,27.10
2009,07,16,16,32,27.20
2009,07,16,16,33,27.30
2009,07,16,16,34,27.30
2009,07,16,16,35,27.40
2009,07,16,16,36,27.40
2009,07,16,16,37,27.40
2009,07,16,16,38,27.40
2009,07,16,16,39,27.40
2009,07,16,16,40,27.40
2009,07,16,16,41,27.30
2009,07,16,16,42,27.30
2009,07,16,16,43,27.20
2009,07,16,16,44,27.10
2009,07,16,16,45,27.10
2009,07,16,16,46,27.10
2009,07,16,16,47,27.10
2009,07,16,16,48,27.10
2009,07,16,16,49,27.10
2009,07,16,16,50,27.10
2009,07,16,16,51,26.90
2009,07,16,16,52,27.00
2009,07,16,16,53,27.10
2009,07,16,16,54,27.10
2009,07,16,16,55,27.20
2009,07,16,16,56,27.20
2009,07,16,16,57,27.10
2009,07,16,16,58,27.00
2009,07,16,16,59,26.90
2009,07,16,17,00,26.90
2009,07,16,17,01,26.90
2009,07,16,17,02,26.90
2009,07,16,17,03,26.90
2009,07,16,17,04,26.80
2009,07,16,17,05,26.80
2009,07,16,17,06,26.80
2009,07,16,17,07,26.90
2009,07,16,17,08,26.90
2009,07,16,17,09,26.90
2009,07,16,17,10,26.80
2009,07,16,17,11,26.80
2009,07,16,17,12,26.80
2009,07,16,17,13,26.70
2009,07,16,17,14,26.70
2009,07,16,17,15,26.70
2009,07,16,17,16,26.80
2009,07,16,17,17,26.80
2009,07,16,17,18,26.80
2009,07,16,17,19,26.80